Location: San Antonio
(29.4240°N, 98.4930°W)
Time: 14:37:31
(UTC-05:00)

ISS - Visible Passes

Search period start: 18 May 2026 00:00
Search period end: 28 May 2026 00:00
Orbit: 414 x 424 km, 51.6° (Epoch: 18 May)

Date Brightness Start Highest point End Pass type
(mag) Time Alt. Az. Time Alt. Az. Time Alt. Az.
22 May -0.2 23:29:20 10° NNW 23:29:23 10° NNW 23:29:23 10° NNW visible
23 May -1.2 22:42:02 10° NNW 22:43:26 18° N 22:43:26 18° N visible
24 May -1.3 21:55:09 10° N 21:56:50 13° NE 21:57:32 13° NE visible
25 May -1.9 22:42:48 10° NW 22:44:38 30° NW 22:44:38 30° NW visible
26 May -3.0 21:55:15 10° NNW 21:58:23 38° NE 21:58:50 36° ENE visible
27 May -2.0 21:07:57 10° NNW 21:10:35 21° NE 21:13:05 11° E visible
27 May -1.3 22:44:34 10° WNW 22:46:02 19° W 22:46:02 19° W visible
